Regional Weather Roundup
Issued by NWS

Home | Current Version | Previous Version | Graphics & Text | Print | Product List | Glossary On
Versions: 1 2 3 4 5 6 7 8 9 10 11 12 13 14 15 16 17 18 19 20 21 22 23 24 25 26 27 28 29 30 31 32 33 34 35 36 37 38 39 40 41 42 43 44 45 46 47 48 49 50
000
ASUS43 KMPX 181410
RWRMN
WEATHER ROUNDUP FOR MINNESOTA
NATIONAL WEATHER SERVICE TWIN CITIES/CHANHASSEN MN
900 AM CDT THU SEP 18 2014


NOTE: "FAIR" INDICATES FEW OR NO CLOUDS BELOW 12,000 FEET WITH NO
SIGNIFICANT WEATHER AND/OR OBSTRUCTIONS TO VISIBILITY. N/A MEANS
CURRENT SKY AND/OR WEATHER CONDITIONS ARE NOT AVAILABLE.

MNZ060>063-068>070-181500-
   Twin Cities Metro

CITY           SKY/WX    TMP DP  RH WIND       PRES   REMARKS
TWIN CITIES    PTSUNNY   52  48  86 E8        30.10R
ST PAUL        CLOUDY    50  48  93 SE7       30.11R
CRYSTAL        PTSUNNY   52  47  83 NE6       30.09R
BLAINE         CLOUDY    50  50 100 E6        30.10R
LAKEVILLE      FOG       48  48 100 E3        30.09S VSB<1/4
SOUTH ST PAUL  CLOUDY    51  48  89 E6        30.10R
LAKE ELMO      FOG       50  50 100 E5        30.11R VSB 1
$$
MNZ001>005-007-008-013>017-022>024-027-028-181500-
   Northwest Minnesota

CITY           SKY/WX    TMP DP  RH WIND       PRES   REMARKS
BEMIDJI        CLOUDY    44  41  91 SE12      30.07S
HALLOCK        PTSUNNY   45  43  93 SE9       29.99S
ROSEAU         FOG       46  43  87 SE12      30.03S VSB 3/4
WARROAD        FOG       46  43  87 SE8       30.05S VSB 1/2
THIEF RVR FALL CLOUDY    48  48 100 SE9       30.02S VSB 1
CROOKSTON      CLOUDY    48  48 100 SE10      30.01S FOG
FOSSTON        CLOUDY    46  45  93 SE7       30.04S
DETROIT LAKES  FOG       46  46 100 SE12      30.04F VSB 3/4
MOORHEAD       CLOUDY    54  54 100 SE9       30.01S
PARK RAPIDS    CLOUDY    45  43  93 SE9       30.07S
MAHNOMEN       CLOUDY    47  46  95 SE10      30.02F
$$
MNZ006-009>011-018-025>026-181500-
   North Central Minnesota

CITY           SKY/WX    TMP DP  RH WIND       PRES   REMARKS
BAUDETTE       CLOUDY    43  43 100 SE8       30.07F FOG
FLAG ISLAND    CLOUDY    46  45  93 SE16G22   30.04S FOG
INTL FALLS     CLOUDY    42  41  96 S6        30.11R
WASKISH        CLOUDY    45  45 100 CALM      30.07F
BIG FORK       CLOUDY    45  41  87 S7        30.11S
LONGVILLE      MOSUNNY   43  39  87 SE8       30.10R
GRAND RAPIDS   CLOUDY    43  37  81 SE7       30.11S
CRANE LAKE     CLOUDY    43  37  81 CALM      30.15S
ORR            CLOUDY    43  36  75 SE7       30.10S
COOK           CLOUDY    43  37  81 SE6       30.12F
WALKER         FAIR      42  38  84 SE6       30.09S
$$
MNZ012-019>021-037-181500-
   Northeast Minnesota

CITY           SKY/WX    TMP DP  RH WIND       PRES   REMARKS
DULUTH         MOSUNNY   44  36  73 E16       30.13S
ELY            PTSUNNY   41  36  81 S8        30.14F
HIBBING        MOSUNNY   45  37  73 SE12      30.12S
EVELETH        CLOUDY    43  36  75 SE8       30.13S
DULUTH HARBOR  PTSUNNY   46  41  81 E12G17    30.20R
TWO HARBORS    CLOUDY    43  36  75 E12       30.14S
SILVER BAY     MOSUNNY   43  37  81 E9        30.15S
GRAND MARAIS     N/A     45  33  63 E6        30.21R
G MARAIS ARPRT MOSUNNY   37  28  70 E6        30.18S
$$
MNZ029>031-032-039>041-046>048-054>057-064-181500-
   West Central Minnesota

CITY           SKY/WX    TMP DP  RH WIND       PRES   REMARKS
FERGUS FALLS   CLOUDY    50  48  93 E9        30.03S
WHEATON        FOG       48  48 100 SE10      30.04S VSB 1/2
MORRIS         FOG       50  48  93 SE10      30.03R VSB 1/2
ALEXANDRIA     FOG       48  47  96 E9        30.07S VSB 1/4
ELBOW LAKE     CLOUDY    49  48  99 SE12      30.03S FOG
WADENA         CLOUDY    45  45 100 E8        30.06F
GLENWOOD       FOG       48  46  93 E8        30.06S VSB<1/4
APPLETON       FOG       54  52  94 E10       30.04R VSB 1/2
BENSON         FOG       50  50 100 SE8       30.05S VSB 1/2
ORTONVILLE     FOG       52  50  93 SE9       30.02S VSB 1/4
MADISON        FOG       55  54  94 SE9       30.03R VSB 1/2
WILLMAR        FOG       52  48  87 E8        30.07S VSB 1/2
$$
MNZ033>034-036-042>043-049>051-058-059-181500-
   Central Minnesota

CITY           SKY/WX    TMP DP  RH WIND       PRES   REMARKS
ST CLOUD       CLOUDY    49  46  90 E6        30.09S FOG
SAUK CENTRE    FOG       45  45 100 E9        30.08S VSB 1/4
PAYNESVILLE    CLOUDY    45  45 100 NE9       30.08S FOG
AITKIN         CLOUDY    45  37  76 E3        30.10S
PINE RIVER     CLOUDY    43  39  87 SE10      30.13S
BRAINERD       CLOUDY    45  42  89 VRB7      30.10S
STAPLES        CLOUDY    45  41  87 E6        30.08S
LONG PRAIRIE   FOG       43  43 100 E7        30.08S VSB 3/4
LITTLE FALLS   CLOUDY    43  41  93 E3        30.09F FOG
LITCHFIELD     FOG       48  48 100 E7        30.08S VSB 1
BUFFALO        CLOUDY    48  46  90 E5        30.10S
MAPLE LAKE     CLOUDY    49  48  98 E8        30.10S FOG
$$
MNZ037-044-045-052-053-181500-
   East Central Minnesota

CITY           SKY/WX    TMP DP  RH WIND       PRES   REMARKS
PRINCETON      CLOUDY    48  46  93 E5        30.11R
MORA           FOG       43  41  93 E3        30.13S VSB 3/4
CAMBRIDGE      CLOUDY    48  43  81 NE3       30.09S
RUSH CITY      CLOUDY    46  44  95 NE3       30.11S
MOOSE LAKE     CLOUDY    43  37  81 CALM      30.12S
HINCKLEY       FOG       43  43 100 NE6       30.13S VSB 3/4
CLOQUET        PTSUNNY   45  37  76 E10       30.13R
MCGREGOR       CLOUDY    43  39  87 E8        30.12S
$$
MNZ071>073-080-081-089-090-097-098-181500-
   Southwest Minnesota

CITY           SKY/WX    TMP DP  RH WIND       PRES   REMARKS
MONTEVIDEO     FOG       52  52 100 SE14      30.05S VSB 1/2
GRANITE FALLS  FOG       52  53 100 E8        30.06S VSB 3/4
CANBY          CLOUDY    51  51  99 SE7       30.04R FOG
MARSHALL       MOSUNNY   54  48  82 SE8       30.03R
REDWOOD FALLS  CLOUDY    53  53 100 E6        30.05R FOG
OLIVIA         FOG       52  50  93 SE9       30.05S VSB 3/4
PIPESTONE      MOSUNNY   59  55  88 S6        30.02S
WINDOM         MOSUNNY   59  54  82 SE3       30.06R
WORTHINGTON    SUNNY     57  55  94 S6        30.05F
JACKSON        SUNNY     59  54  82 S7        30.07R
TRACY          SUNNY     56  54  92 CALM      30.04S
SLAYTON        MOSUNNY   54  54 100 CALM      30.05S FOG
$$
MNZ065>067-074>077-082>085-091>093-181500-
   South Central Minnesota

CITY           SKY/WX    TMP DP  RH WIND       PRES   REMARKS
MANKATO        SUNNY     57  48  72 SE7       30.08R
NEW ULM        SUNNY     54  54 100 E5        30.07R FOG
ST JAMES       SUNNY     57  52  82 CALM      30.07S
FAIRMONT       SUNNY     55  50  82 S8        30.07R
GLENCOE        CLOUDY    52  49  89 E7        30.08R
FARIBAULT      MOSUNNY   54  48  82 CALM      30.09S
OWATONNA       SUNNY     55  52  88 E3        30.09R
WASECA         SUNNY     54  48  82 CALM      30.10R
ALBERT LEA     SUNNY     57  55  94 S5        30.09R
$$
MNZ078>079-086>088-094>096-181500-
   Southeast Minnesota

CITY           SKY/WX    TMP DP  RH WIND       PRES   REMARKS
ROCHESTER      SUNNY     54  52  93 SE8       30.12R
RED WING       CLOUDY    52  52 100 E8        30.10R FOG
STANTON        CLOUDY    51  49  95 CALM      30.08S FOG
DODGE CENTER   SUNNY     55  52  88 SE5       30.10S
WINONA         CLOUDY    52  50  93 E7        30.14R FOG
AUSTIN         SUNNY     55  54  94 CALM      30.09S
PRESTON        SUNNY     52  52  99 SE6       30.13R
$$
ABBREVIATIONS USED IN REMARKS
   TC - TEMPERATURES IN CELSIUS
  WCI - WIND CHILL INDEX
   HX - HEAT INDEX
  VSB - VISIBILITY
$$


USA.gov is the U.S. government's official web portal to all federal, state and local government web resources and services.